DW7040 Weather Reports


Display with metric or nautical units.
time (UTC)temp
F
wind
direction
speed
MPH
gust
MPH
rain 1hr
in
rain 24hr
in
rain mn
in
humidity
%
barometer
mb
20260831023032 0 242 0.0 0.0 0.00 0.00 0.00 994.3
20260831021527 0 241 0.0 0.0 0.00 0.00 0.00 994.3
20260831020022 0 242 0.0 0.0 0.00 0.00 0.00 994.1
20260831014549 0 241 0.0 0.0 0.00 0.00 0.00 993.9
20260831013045 0 241 0.0 0.0 0.00 0.00 0.00 993.9
20260831011541 0 242 0.0 0.0 0.00 0.00 0.00 993.8
20260831010033 0 241 0.0 0.0 0.00 0.00 0.00 993.7
20260831004504 0 242 0.0 0.0 0.00 0.00 0.00 993.6
20260831003012 0 241 0.0 0.0 0.00 0.00 0.00 993.6
20260831001544 0 243 0.0 0.0 0.00 0.00 0.00 993.5
20260831000020 0 242 0.0 0.0 0.00 0.00 0.00 993.5
20260830234544 0 242 0.0 0.0 0.00 0.00 0.00 993.5
20260830233013 0 242 0.0 0.0 0.00 0.00 0.00 993.3
20260830231515 0 242 0.0 0.0 0.00 0.00 0.00 993.2
20260830230013 0 242 0.0 0.0 0.00 0.00 0.00 993.2
20260830224546 0 242 0.0 0.0 0.00 0.00 0.00 993.1
20260830223028 0 241 0.0 0.0 0.00 0.00 0.00 993.0
20260830221538 0 241 0.0 0.0 0.00 0.00 0.00 993.0
20260830220004 0 242 0.0 0.0 0.00 0.00 0.00 992.9
20260830214600 0 242 0.0 0.0 0.00 0.00 0.00 992.8
20260830213018 0 242 0.0 0.0 0.00 0.00 0.00 992.7
20260830211546 0 242 0.0 0.0 0.00 0.00 0.00 992.7
20260830210007 0 242 0.0 0.0 0.00 0.00 0.00 992.6
20260830204503 0 241 0.0 0.0 0.00 0.00 0.00 992.4
20260830203052 0 242 0.0 0.0 0.00 0.00 0.00 992.4
20260830201510 0 242 0.0 0.0 0.00 0.00 0.00 992.5
20260830200053 0 240 0.0 0.0 0.00 0.00 0.00 992.4
20260830194609 0 241 0.0 0.0 0.00 0.00 0.00 992.4
20260830194536 0 242 0.0 0.0 0.00 0.00 0.00 992.4
20260830194502 0 242 0.0 0.0 0.00 0.00 0.00 992.4
20260830193106 0 241 0.0 0.0 0.00 0.00 0.00 992.5
20260830191502 0 242 0.0 0.0 0.00 0.00 0.00 992.5
20260830190023 0 241 0.0 0.0 0.00 0.00 0.00 992.4
20260830184554 0 241 0.0 0.0 0.00 0.00 0.00 992.4
20260830183026 0 242 0.0 0.0 0.00 0.00 0.00 992.6
20260830181518 0 242 0.0 0.0 0.00 0.00 0.00 992.8
20260830180057 0 242 0.0 0.0 0.00 0.00 0.00 992.7
20260830174547 0 242 0.0 0.0 0.00 0.00 0.00 992.7
20260830173052 0 242 0.0 0.0 0.00 0.00 0.00 992.9
20260830173001 0 243 0.0 0.0 0.00 0.00 0.00 993.0
20260830171555 0 242 0.0 0.0 0.00 0.00 0.00 993.0
20260830170032 0 243 0.0 0.0 0.00 0.00 0.00 992.9
20260830164542 0 243 0.0 0.0 0.00 0.00 0.00 993.1
20260830163041 0 242 0.0 0.0 0.00 0.00 0.00 993.0
20260830161539 0 243 0.0 0.0 0.00 0.00 0.00 993.1
20260830161508 0 243 0.0 0.0 0.00 0.00 0.00 993.2
20260830160039 0 239 0.0 0.0 0.00 0.00 0.00 992.9
20260830154551 0 233 0.0 0.0 0.00 0.00 0.00 992.9
20260830153104 0 233 0.0 0.0 0.00 0.00 0.00 992.9
20260830153026 0 233 0.0 0.0 0.00 0.00 0.00 992.9
20260830151536 0 232 0.0 0.0 0.00 0.00 0.00 993.1
20260830150041 0 230 0.0 0.0 0.00 0.00 0.00 993.4
20260830144530 0 229 0.0 0.0 0.00 0.00 0.00 993.3
20260830143026 0 226 0.0 0.0 0.00 0.00 0.00 993.6
20260830141520 0 223 0.0 0.0 0.00 0.00 0.00 993.8
20260830140001 0 223 0.0 0.0 0.00 0.00 0.00 993.9
20260830134600 0 222 0.0 0.0 0.00 0.00 0.00 994.2
20260830133039 0 220 0.0 0.0 0.00 0.00 0.00 994.3
20260830131556 0 220 0.0 0.0 0.00 0.00 0.00 994.4
20260830130105 0 220 0.0 0.0 0.00 0.00 0.00 994.5
20260830130014 0 220 0.0 0.0 0.00 0.00 0.00 994.5
20260830124505 0 221 0.0 0.0 0.00 0.00 0.00 994.5
20260830123028 0 219 0.0 0.0 0.00 0.00 0.00 994.9
20260830120024 0 219 0.0 0.0 0.00 0.00 0.00 995.3
20260830114529 0 219 0.0 0.0 0.00 0.00 0.00 995.3
20260830113012 0 218 0.0 0.0 0.00 0.00 0.00 995.1
20260830111556 0 217 0.0 0.0 0.00 0.00 0.00 995.2
20260830110041 0 218 0.0 0.0 0.00 0.00 0.00 995.4
20260830104551 0 218 0.0 0.0 0.00 0.00 0.00 995.6
20260830103031 0 218 0.0 0.0 0.00 0.00 0.00 995.6
20260830101527 0 218 0.0 0.0 0.00 0.00 0.00 995.7
20260830100022 0 217 0.0 0.0 0.00 0.00 0.00 995.9
20260830094506 0 218 0.0 0.0 0.00 0.00 0.00 996.0
20260830093034 0 208 0.0 0.0 0.00 0.00 0.00 996.0
20260830091520 0 207 0.0 0.0 0.00 0.00 0.00 996.0
20260830090057 0 206 0.0 0.0 0.00 0.00 0.00 996.0
20260830084538 0 205 0.0 0.0 0.00 0.00 0.00 996.0
20260830083101 0 204 0.0 0.0 0.00 0.00 0.00 996.0
20260830081530 0 202 0.0 0.0 0.00 0.00 0.00 996.0
20260830081513 0 202 0.0 0.0 0.00 0.00 0.00 995.9
20260830080034 0 202 0.0 0.0 0.00 0.00 0.00 996.1
20260830074522 0 202 0.0 0.0 0.00 0.00 0.00 996.2
20260830073049 0 202 0.0 0.0 0.00 0.00 0.00 996.2
20260830071541 0 202 0.0 0.0 0.00 0.00 0.00 996.4
20260830070036 0 202 0.0 0.0 0.00 0.00 0.00 996.2
20260830064507 0 202 0.0 0.0 0.00 0.00 0.00 996.2
20260830063044 0 202 0.0 0.0 0.00 0.00 0.00 996.2
20260830061556 0 202 0.0 0.0 0.00 0.00 0.00 996.3
20260830060051 0 202 0.0 0.0 0.00 0.00 0.00 996.3
20260830054529 0 0.0 0.0 0.00 0.00 0.00 996.3
20260830053040 0 0.0 0.0 0.00 0.00 0.00 996.3
20260830051521 0 0.0 0.0 0.00 0.00 0.00 996.4
20260830050005 0 0.0 0.0 0.00 0.00 0.00 996.4
20260830044517 0 0.0 0.0 0.00 0.00 0.00 996.4
20260830043041 0 0.0 0.0 0.00 0.00 0.00 996.4
20260830041548 0 0.0 0.0 0.00 0.00 0.00 996.3
20260830034523 0 0.0 0.0 0.00 0.00 0.00 996.2
20260830031523 0 0.0 0.0 0.00 0.00 0.00 996.4
20260830030016 0 0.0 0.0 0.00 0.00 0.00 996.3